User: anonymous   Login
Location: *
(41.7492°S, 135.4150°W)
Time: 02:41:36
(UTC+00:00)
Language:

KKS-1 - Orbit

View from above orbital plane
View from above orbital plane
View from above satellite
View from above satellite

Ground track
Ground track

The orbit data is extracted from the following two-line orbital elements,

1 33499U 09002H   22176.58066706  .00000497  00000-0  79933-4 0  9990
2 33499  98.2173  58.7611 0007753 293.7036  66.3358 14.76028118721447
Epoch (UTC): 25 June 2022 13:56:09
Eccentricity: 0.0007753
inclination: 98.2173°
perigee height: 636 km
apogee height: 647 km
right ascension of ascending node: 58.7611°
argument of perigee: 293.7036°
revolutions per day: 14.76028118
mean anomaly at epoch: 66.3358°
orbit number at epoch: 72144

The dashed part of the orbit path shows where the satellite is in the earth's shadow,  

DLR